Temperature
6 5 5 5 5 6 6 6 6 6 6 6 5 5 5 5 5 5 5 5 6 6 7 7 7 7 7 7 7 7 7 7 7 8 8 8 8 7 7 7 7 7 7 7
4 5 5 5 5 5 5 5 5 5 6 6 5 5 5 5 4 5 4 5 5 6 6 6 6 6 7 7 7 7 7 7 7 7 7 7 7 7 7 7 6 6 6 6
5 5 5 5 5 5 5 5 5 5 5 5 5 5 5 5 4 5 5 5 5 5 5 6 6 6 6 6 6 6 6 6 6 6 6 6 6 6 6 6 6 6 6 6
4 4 5 5 5 5 5 5 5 5 4 3 4 4 5 4 4 3 4 4 4 5 5 5 5 6 6 6 6 6 6 6 6 5 5 5 5 5 6 6 6 5 5 5
4 4 4 4 4 4 4 4 4 4 3 3 3 3 4 4 4 3 3 3 4 4 4 5 5 5 5 5 5 5 5 5 5 5 5 5 5 5 5 5 5 5 5 5
4 4 4 4 4 4 3 3 3 2 2 3 3 3 3 3 3 3 3 3 4 4 4 4 4 5 5 5 5 5 5 5 5 5 4 4 4 4 4 5 4 4 4 4
4 4 3 4 4 3 3 2 2 2 1 2 2 2 3 3 3 3 2 3 3 3 4 4 4 4 4 4 4 5 4 4 4 4 4 4 4 3 4 4 4 4 4 4
3 3 3 3 3 3 2 3 2 3 3 2 2 2 3 3 2 3 3 3 3 3 3 3 4 3 4 4 4 4 4 4 4 3 3 3 3 3 3 3 3 3 3 3
2 3 3 3 3 3 2 1 2 1 0 1 2 1 2 2 2 2 2 2 2 3 3 3 3 3 3 3 3 3 3 3 3 3 3 3 2 2 2 2 2 2 3 3
2 2 2 2 3 2 2 1 0 1 2 2 2 1 2 3 2 1 0 1 2 2 2 3 3 2 2 2 2 2 2 2 2 2 2 2 2 2 2 2 2 2 2 2
1 1 1 1 1 1 1 1 0 -0 0 1 2 3 2 2 2 1 0 1 2 2 2 2 2 2 2 2 2 2 2 2 1 1 1 1 1 1 1 1 1 1 1 1
0 -0 0 0 0 0 1 0 -0 1 0 -1 -1 1 2 1 1 0 1 2 2 2 2 2 1 1 1 1 1 1 1 1 1 1 1 1 1 1 1 1 1 1 1 1
-0 -0 1 1 0 -1 -1 -1 -2 -2 -2 -2 -1 2 2 0 1 1 1 1 2 1 1 1 1 1 1 1 1 0 0 0 0 0 0 0 0 0 0 0 0 0 0 0
0 -1 0 2 1 -0 -1 -2 -2 -2 -1 -2 -1 0 1 1 0 0 1 1 1 1 1 1 0 0 0 0 0 -0 -0 -0 -1 -1 -1 -0 -0 -0 -0 -0 -0 -0 -0 -0
-1 -1 -1 -1 -1 -1 -1 -1 -3 -2 -2 -1 -1 -1 1 0 -1 0 0 1 0 0 0 0 0 0 0 -0 -0 -0 -1 -1 -1 -1 -1 -1 -1 -1 -1 -1 -1 -1 -1 -1
-2 -1 -2 -1 -1 -2 -2 -2 -2 -2 -2 -2 -2 -1 -0 -0 -0 -0 -0 -0 -0 0 0 -0 -0 -0 -0 -0 -1 -1 -1 -1 -1 -1 -1 -1 -1 -1 -1 -1 -1 -1 -1 -1
-3 -2 -1 -1 -2 -1 -1 -1 -2 -2 -3 -2 -1 -0 -1 -1 -1 -1 -0 -0 -0 0 -0 -0 -0 -0 -1 -1 -1 -1 -1 -2 -2 -2 -1 -2 -2 -1 -1 -1 -1 -1 -1 -1
-3 -3 -3 -2 -2 -0 1 -1 -2 -2 -2 -3 -2 -2 -2 -1 -1 0 1 0 0 -0 -0 -1 -1 -1 -1 -1 -1 -2 -2 -2 -2 -2 -2 -2 -2 -2 -2 -2 -2 -2 -2 -2
-4 -3 -3 -3 -3 -2 -0 -1 -2 -2 -2 -2 -3 -2 -2 -2 -2 -0 1 1 0 -0 -1 -1 -1 -1 -1 -1 -2 -2 -2 -2 -2 -2 -2 -2 -2 -2 -2 -2 -2 -2 -2 -2
-4 -4 -4 -4 -2 -1 0 -1 -2 -1 -1 -1 -2 -3 -3 -3 -2 -1 1 0 -0 -1 -1 -1 -1 -1 -2 -2 -2 -2 -2 -2 -2 -2 -2 -2 -2 -2 -2 -2 -2 -3 -3 -3
-4 -4 -4 -4 -3 -2 -1 -2 -1 -0 0 -0 -1 -1 -2 -3 -1 -0 -0 -0 -1 -1 -1 -1 -2 -2 -2 -2 -2 -3 -3 -3 -3 -3 -3 -3 -3 -3 -3 -3 -3 -3 -3 -3
-4 -5 -5 -5 -4 -1 -2 -3 -2 -1 -0 -0 -0 -1 -1 -1 -1 -1 -1 -1 -1 -1 -2 -2 -2 -2 -2 -3 -3 -3 -3 -3 -3 -3 -3 -3 -3 -3 -3 -3 -3 -3 -3 -3
-5 -4 -4 -4 -2 -2 -2 -1 -0 -0 -0 -0 -0 -0 -1 -1 -1 -1 -2 -2 -2 -2 -2 -2 -2 -2 -3 -3 -3 -3 -3 -3 -3 -3 -3 -3 -3 -3 -3 -4 -4 -4 -4 -4
-6 -6 -5 -5 -4 -3 -2 -1 -0 -0 -0 -0 -0 -1 -1 -2 -2 -2 -2 -2 -2 -2 -2 -3 -3 -3 -3 -3 -3 -3 -3 -3 -3 -3 -3 -3 -4 -4 -4 -4 -4 -4 -4 -4
-4 -6 -6 -6 -5 -4 -1 -0 0 0 -0 -0 -1 -1 -1 -1 -2 -2 -2 -2 -2 -3 -3 -3 -3 -3 -3 -3 -3 -3 -3 -3 -3 -3 -4 -4 -4 -4 -4 -4 -4 -4 -4 -4
-6 -6 -5 -3 -2 -3 -1 1 0 -0 -0 -0 -1 -1 -1 -1 -2 -2 -2 -2 -3 -3 -3 -3 -3 -3 -3 -3 -4 -4 -4 -4 -4 -4 -4 -4 -4 -4 -5 -5 -5 -5 -5 -5
Wind_Speed
3 4 2 3 4 3 3 3 4 4 2 2 5 8 8 4 3 4 3 3 3 4 3 0 0 0 1 1 1 0 1 0 1 1 1 1 2 2 2 2 3 3 3 3
4 1 4 2 1 2 2 3 4 4 3 2 5 9 7 5 4 5 5 5 4 3 2 2 1 1 0 0 1 1 1 1 1 1 1 1 1 2 2 2 3 3 3 3
4 2 1 3 2 1 2 4 4 4 4 3 4 7 5 4 3 2 2 3 3 3 3 1 1 1 1 1 2 2 2 2 2 1 1 1 1 1 2 2 3 4 4 4
1 2 1 2 1 2 4 2 3 3 2 3 1 5 6 4 4 3 2 2 3 3 2 1 1 2 2 3 2 2 2 2 2 1 1 1 1 2 3 3 3 4 4 4
0 1 1 1 2 2 3 1 0 1 2 3 1 3 8 2 4 4 4 3 3 2 2 2 2 2 2 2 2 1 1 2 2 2 2 2 2 3 3 2 3 4 3 4
0 0 1 1 0 1 2 3 3 3 2 3 4 5 7 4 5 4 3 3 3 2 1 1 1 2 2 2 2 1 1 2 2 2 3 3 4 4 4 4 4 4 3 3
3 1 1 1 2 2 3 4 3 4 2 6 2 4 8 5 4 4 4 4 3 2 1 1 2 3 3 3 3 2 2 3 2 3 3 4 4 5 5 5 5 4 4 4
1 3 1 1 2 2 2 5 5 4 4 5 2 6 6 3 2 2 2 2 1 1 1 1 2 2 2 3 3 3 3 3 3 3 4 4 4 4 4 5 4 4 4 5
3 3 2 1 1 3 3 2 3 4 0 3 5 6 7 1 1 1 0 1 2 2 2 2 2 2 2 3 3 3 3 3 3 3 4 4 4 4 5 5 4 4 4 5
4 2 2 2 2 3 2 5 4 3 2 4 6 5 5 4 3 2 2 3 4 3 3 3 2 2 2 3 3 3 3 3 3 3 3 4 4 4 4 4 5 5 5 5
2 3 2 1 2 2 2 2 3 3 3 3 4 6 4 5 3 3 5 4 4 4 4 3 3 3 3 3 3 3 3 4 4 3 4 4 4 4 4 4 4 4 4 4
2 3 1 3 1 0 2 4 5 3 3 3 3 7 4 3 3 4 4 4 4 4 3 3 3 3 3 3 4 3 3 4 4 4 4 4 4 3 4 4 4 4 4 4
4 4 1 4 2 1 1 2 3 3 3 4 4 7 3 2 3 3 4 5 4 3 3 3 3 3 3 3 4 4 4 4 4 4 4 4 4 4 4 5 4 4 4 4
4 3 5 7 5 4 3 4 4 5 4 5 8 10 9 7 6 5 5 5 4 4 3 3 3 3 4 4 4 4 4 4 4 4 4 4 5 5 5 5 4 4 4 4
3 3 3 4 3 3 5 6 7 9 9 9 8 9 13 8 7 6 5 5 5 5 4 4 4 4 4 4 5 4 4 4 4 4 5 5 5 5 4 4 4 4 4 5
2 2 1 2 1 3 6 9 10 10 8 10 10 13 11 6 4 5 5 5 6 6 6 5 5 5 5 5 5 5 5 5 4 5 6 6 5 5 4 4 4 4 4 4
3 4 2 3 2 3 7 9 10 7 7 8 12 12 6 5 6 7 7 7 7 7 6 6 5 5 5 5 5 5 5 5 5 5 6 6 5 5 5 4 4 4 4 4
5 4 3 0 2 5 7 2 6 7 7 9 9 8 6 8 8 8 7 7 6 6 6 6 5 5 5 4 5 4 4 4 5 5 6 6 5 5 5 4 4 4 4 4
3 5 3 2 2 8 7 2 4 5 7 7 10 10 7 5 6 6 4 4 6 6 5 5 4 4 4 4 4 4 5 4 5 6 6 6 5 5 5 4 4 4 4 4
3 3 4 3 3 6 6 2 3 3 6 4 6 8 5 1 3 6 4 4 5 4 3 3 3 3 3 4 3 4 4 5 6 6 6 6 5 5 4 4 4 3 3 3
3 2 3 4 5 8 6 2 4 3 6 3 4 6 5 5 7 6 5 5 4 4 3 3 2 3 4 4 3 4 4 5 6 6 6 6 5 4 4 3 2 3 3 3
7 6 6 5 5 8 4 5 6 7 3 2 3 4 5 7 7 6 5 5 4 3 3 2 2 4 4 3 3 4 5 6 5 5 5 5 5 4 3 2 3 2 2 2
7 8 6 9 9 4 5 7 6 3 4 4 4 5 5 5 6 6 5 4 4 3 3 3 3 4 4 4 3 5 5 5 5 4 4 4 4 4 3 3 3 2 2 2
4 3 4 6 9 7 7 7 6 6 6 6 5 5 4 6 6 6 5 4 4 4 3 2 2 3 5 4 4 5 5 4 4 4 4 3 3 3 3 3 2 2 2 2
5 6 4 7 8 7 6 7 8 7 6 6 5 5 6 6 6 6 5 5 4 4 3 3 3 4 5 5 5 5 4 3 3 3 3 3 3 3 3 3 2 2 2 2
6 8 8 8 7 6 7 5 5 6 7 6 6 5 5 5 6 5 5 4 4 4 3 3 3 4 4 4 5 4 4 3 2 2 2 2 2 2 2 3 3 4 3 4
Wind_Direction
48 86 186 216 203 193 172 194 240 257 304 301 262 269 277 277 258 253 249 242 247 253 266 282 67 76 70 44 60 159 184 215 97 59 18 343 317 312 316 328 330 333 335 337
58 244 246 221 164 148 198 229 260 288 323 285 281 276 269 249 238 237 230 233 235 258 313 343 4 33 29 251 273 220 212 205 184 188 205 229 265 272 276 302 326 326 324 319
157 243 245 142 126 163 249 222 238 262 325 343 315 294 269 258 238 243 222 216 221 217 229 259 288 269 274 267 254 260 242 224 211 187 76 22 10 334 320 315 316 319 316 310
116 309 106 122 190 197 250 250 240 260 295 297 350 289 277 261 270 256 253 237 239 243 232 240 277 291 270 261 262 259 263 237 220 178 157 169 256 264 267 279 288 302 306 300
220 22 82 177 232 186 213 358 241 252 205 292 277 243 281 288 266 259 255 251 254 255 237 244 263 269 289 294 282 263 270 257 235 212 205 215 250 262 277 286 291 297 300 300
225 2 130 198 45 151 163 66 51 43 68 275 231 207 276 247 231 248 250 252 255 258 269 296 332 354 339 335 325 305 279 287 258 230 227 228 249 266 279 286 286 291 293 293
348 355 9 57 64 35 77 91 22 351 341 255 235 215 252 253 233 225 243 253 253 254 276 326 350 343 334 333 325 314 300 295 281 248 244 242 246 248 251 261 265 277 289 290
156 290 309 25 137 159 157 142 161 209 245 284 289 238 256 262 273 253 245 245 251 266 278 292 298 304 313 317 317 305 297 296 295 273 263 258 256 255 258 258 261 264 269 275
171 242 351 22 42 122 125 148 153 134 155 283 271 282 298 252 305 336 332 317 277 284 290 292 299 301 307 310 309 300 291 299 295 290 283 273 266 263 264 267 267 268 271 276
153 215 302 329 65 30 118 137 110 135 189 270 288 276 263 269 267 283 286 286 291 302 307 307 307 305 311 317 321 324 313 300 302 304 297 292 278 271 271 269 271 273 278 279
135 154 311 26 176 190 113 113 126 137 169 189 276 277 234 227 233 245 259 269 275 282 286 293 304 314 324 334 331 330 329 327 323 314 307 301 290 283 281 273 273 275 280 279
139 130 231 254 272 355 180 180 158 170 228 195 213 273 283 238 247 249 268 281 288 286 291 296 302 317 326 328 326 325 327 324 319 317 314 305 300 297 290 284 280 277 280 279
142 126 51 345 338 350 259 195 169 142 137 178 201 264 319 340 311 291 280 287 292 293 296 306 310 310 312 312 313 315 321 320 321 322 320 313 308 303 292 286 284 282 279 280
126 144 185 209 227 196 219 214 175 158 189 220 228 257 288 299 301 300 290 283 282 280 279 290 299 300 303 306 308 310 316 319 321 322 316 307 302 294 287 285 284 281 276 275
120 183 218 247 248 203 227 223 199 205 209 217 241 248 268 277 276 278 277 283 287 286 286 284 289 295 303 308 311 312 313 316 316 314 307 299 299 296 290 288 285 282 280 278
113 159 172 277 244 243 263 248 222 224 228 238 262 271 268 271 272 275 274 274 274 278 280 284 288 291 293 296 301 308 308 311 314 308 302 302 304 302 297 290 287 286 282 280
139 138 152 261 308 332 274 238 209 211 213 203 233 251 278 290 279 270 267 264 262 271 278 280 280 279 282 284 289 295 299 309 312 305 303 304 302 298 294 289 284 279 279 282
146 140 149 209 35 249 252 207 185 207 237 219 239 260 267 266 280 272 255 248 260 272 276 279 282 288 291 293 297 298 303 308 309 306 306 305 302 295 292 290 283 278 278 277
150 146 142 152 243 276 292 238 177 200 266 222 232 258 275 305 318 290 250 234 253 263 269 270 272 281 287 291 296 304 306 311 310 307 306 306 303 298 293 288 284 279 277 276
75 112 136 149 203 246 257 235 177 131 284 240 216 248 261 349 303 279 287 290 282 277 274 278 279 287 285 288 298 302 303 308 305 303 303 303 298 293 289 286 290 288 280 281
135 136 174 185 227 262 255 201 129 170 258 283 226 240 218 216 238 270 293 296 286 280 284 284 281 279 276 284 296 295 298 296 295 300 303 303 299 290 283 289 293 294 293 298
174 173 188 169 210 253 200 144 187 228 275 265 250 240 234 249 270 281 285 287 291 295 297 291 286 289 290 289 290 289 288 291 299 303 305 305 305 302 301 297 294 291 293 294
198 193 191 198 219 249 188 207 232 240 258 258 251 259 249 259 270 276 276 271 275 274 278 285 276 289 298 295 284 280 287 297 305 303 301 306 314 316 315 304 296 294 290 286
239 192 196 250 262 254 247 250 257 247 250 263 261 263 250 255 263 269 271 272 273 278 277 284 282 287 297 301 295 280 289 300 303 303 304 312 318 322 328 323 312 302 294 293
211 172 206 252 272 294 269 234 246 257 259 265 267 256 243 242 257 262 265 265 266 276 282 277 272 277 287 298 296 295 300 304 300 302 309 315 317 318 326 329 322 305 286 284
191 183 192 231 229 218 255 257 244 250 260 259 259 271 258 234 246 256 257 259 261 267 276 282 283 283 288 294 296 301 302 296 292 303 312 314 314 318 324 333 340 348 347 349
Height
1483 1488 1491 1490 1490 1491 1493 1495 1496 1494 1492 1492 1491 1489 1486 1484 1484 1483 1483 1483 1483 1484 1485 1486 1487 1488 1489 1489 1490 1490 1491 1491 1492 1492 1492 1491 1491 1491 1491 1491 1491 1491 1490 1490
1488 1490 1489 1488 1489 1491 1492 1495 1495 1494 1492 1492 1491 1488 1484 1482 1482 1481 1481 1481 1481 1481 1482 1483 1484 1485 1486 1486 1487 1488 1488 1488 1489 1489 1489 1489 1488 1488 1488 1488 1488 1488 1487 1487
1488 1490 1487 1488 1490 1491 1493 1495 1495 1495 1493 1493 1492 1486 1482 1479 1479 1479 1479 1478 1479 1479 1480 1481 1482 1483 1483 1484 1484 1485 1485 1485 1485 1486 1486 1486 1486 1485 1485 1485 1485 1484 1484 1484
1490 1489 1488 1489 1491 1491 1493 1493 1493 1494 1497 1499 1497 1496 1482 1479 1478 1477 1477 1477 1477 1478 1478 1479 1480 1480 1481 1481 1482 1482 1482 1482 1482 1482 1482 1482 1481 1481 1481 1481 1481 1481 1481 1480
1490 1490 1489 1490 1490 1491 1493 1493 1494 1495 1498 1501 1499 1499 1484 1479 1477 1476 1475 1475 1475 1476 1477 1477 1478 1478 1479 1479 1479 1479 1479 1479 1479 1479 1479 1479 1478 1478 1478 1478 1477 1477 1477 1477
1490 1489 1490 1490 1490 1490 1492 1495 1497 1501 1502 1502 1497 1498 1487 1481 1475 1474 1473 1473 1474 1475 1475 1476 1476 1476 1476 1476 1476 1476 1476 1476 1476 1476 1475 1475 1475 1474 1474 1473 1473 1473 1472 1472
1491 1490 1490 1489 1490 1491 1493 1499 1507 1506 1511 1503 1496 1495 1486 1475 1473 1472 1472 1472 1473 1473 1474 1473 1473 1473 1473 1473 1473 1473 1472 1472 1472 1472 1472 1471 1471 1470 1470 1469 1469 1468 1467 1467
1493 1494 1491 1490 1491 1493 1495 1496 1505 1505 1506 1502 1497 1494 1480 1473 1471 1471 1471 1471 1472 1472 1472 1472 1472 1472 1471 1470 1470 1469 1469 1468 1468 1468 1468 1468 1467 1466 1466 1465 1464 1464 1463 1463
1494 1494 1491 1491 1491 1491 1494 1498 1499 1508 1513 1510 1497 1491 1478 1471 1471 1470 1471 1471 1471 1471 1471 1470 1470 1470 1469 1468 1468 1467 1466 1465 1465 1464 1464 1463 1463 1462 1461 1461 1460 1459 1458 1458
1491 1496 1493 1492 1491 1493 1494 1497 1503 1505 1505 1501 1494 1492 1482 1472 1471 1471 1471 1470 1469 1469 1469 1469 1468 1468 1467 1466 1465 1464 1463 1462 1461 1461 1460 1459 1459 1458 1457 1456 1455 1454 1454 1454
1491 1496 1496 1495 1495 1496 1497 1499 1501 1505 1505 1504 1500 1487 1473 1471 1470 1470 1469 1469 1468 1468 1467 1467 1466 1466 1465 1464 1463 1462 1460 1459 1458 1457 1456 1455 1454 1454 1453 1452 1450 1449 1449 1449
1491 1496 1499 1497 1496 1496 1495 1497 1500 1502 1505 1509 1509 1491 1469 1469 1468 1468 1468 1467 1467 1467 1466 1465 1464 1464 1462 1461 1460 1459 1458 1457 1455 1454 1453 1452 1451 1449 1448 1447 1446 1445 1444 1444
1490 1495 1497 1496 1500 1499 1498 1497 1500 1503 1506 1511 1506 1486 1469 1468 1467 1467 1467 1466 1466 1465 1464 1463 1462 1461 1460 1459 1458 1457 1456 1454 1453 1451 1449 1448 1447 1445 1444 1442 1441 1440 1440 1439
1486 1493 1495 1493 1491 1494 1497 1497 1499 1501 1503 1504 1497 1482 1471 1469 1468 1467 1466 1465 1464 1463 1462 1461 1460 1459 1458 1457 1456 1454 1453 1451 1450 1448 1446 1444 1443 1441 1440 1439 1437 1436 1435 1435
1486 1492 1494 1493 1492 1493 1493 1493 1496 1497 1493 1493 1484 1482 1469 1467 1467 1465 1464 1463 1462 1461 1460 1459 1458 1457 1456 1454 1453 1452 1450 1448 1447 1445 1443 1441 1439 1437 1436 1435 1433 1432 1432 1431
1488 1491 1493 1492 1491 1492 1491 1487 1489 1490 1489 1488 1483 1476 1465 1465 1464 1463 1462 1460 1459 1458 1457 1456 1455 1454 1453 1451 1450 1449 1447 1445 1443 1441 1439 1437 1435 1434 1432 1430 1429 1428 1428 1427
1489 1492 1492 1491 1493 1489 1485 1478 1480 1482 1480 1479 1477 1468 1463 1463 1461 1460 1458 1457 1456 1455 1454 1453 1452 1451 1450 1448 1447 1445 1444 1442 1440 1438 1436 1434 1432 1430 1428 1427 1426 1425 1424 1424
1488 1491 1495 1496 1494 1489 1473 1470 1471 1473 1471 1470 1467 1463 1461 1460 1458 1456 1455 1454 1453 1452 1451 1450 1449 1448 1447 1445 1444 1443 1441 1439 1437 1435 1432 1430 1428 1426 1424 1423 1422 1421 1421 1420
1485 1489 1495 1498 1496 1485 1472 1468 1470 1471 1467 1462 1463 1460 1459 1458 1456 1452 1451 1451 1450 1449 1448 1447 1446 1445 1443 1442 1441 1439 1437 1435 1433 1431 1429 1427 1425 1422 1421 1420 1419 1418 1418 1417
1486 1488 1494 1498 1492 1482 1467 1465 1464 1468 1466 1456 1456 1456 1456 1457 1458 1451 1448 1448 1447 1446 1445 1444 1443 1442 1440 1439 1437 1436 1434 1432 1430 1428 1426 1424 1422 1419 1418 1417 1416 1415 1415 1414
1488 1491 1493 1495 1492 1478 1465 1463 1465 1469 1461 1454 1452 1452 1453 1453 1452 1448 1446 1445 1444 1443 1442 1441 1440 1439 1437 1436 1434 1432 1431 1429 1427 1425 1423 1421 1419 1417 1415 1414 1413 1413 1412 1411
1483 1487 1491 1492 1490 1475 1461 1462 1463 1458 1453 1451 1450 1450 1450 1448 1446 1445 1443 1442 1440 1439 1438 1437 1436 1435 1434 1433 1431 1429 1428 1426 1424 1422 1420 1418 1416 1414 1413 1412 1411 1410 1409 1409
1477 1475 1475 1475 1466 1457 1455 1454 1453 1452 1451 1449 1448 1447 1447 1445 1443 1442 1440 1439 1437 1436 1435 1435 1433 1432 1431 1430 1428 1426 1425 1423 1421 1419 1417 1415 1414 1412 1411 1410 1408 1407 1407 1406
1470 1469 1470 1469 1458 1453 1452 1451 1450 1449 1448 1446 1446 1444 1443 1441 1440 1439 1437 1436 1435 1434 1433 1432 1430 1429 1428 1427 1425 1424 1422 1420 1418 1416 1414 1413 1411 1410 1409 1408 1406 1405 1405 1404
1461 1465 1466 1463 1454 1450 1446 1446 1446 1445 1444 1443 1442 1441 1439 1438 1437 1435 1434 1433 1432 1431 1430 1429 1428 1426 1425 1424 1422 1421 1419 1417 1416 1414 1413 1411 1410 1408 1407 1406 1405 1404 1403 1403
1455 1456 1458 1452 1446 1446 1443 1442 1442 1441 1440 1439 1438 1436 1435 1435 1433 1432 1431 1430 1429 1428 1427 1426 1425 1424 1422 1421 1420 1418 1417 1415 1414 1412 1411 1410 1408 1407 1406 1405 1404 1403 1403 1402